User: anonymous   Login
Location: Burjasot
(39.5167°N, 0.4167°W)
Time: 19:26:20
(UTC+02:00)
Language:

ISS - Orbit

View from above orbital plane
View from above orbital plane
View from above satellite
View from above satellite

Ground track
Ground track

The orbit data is extracted from the following two-line orbital elements,

1 25544U 98067A   19169.45753898  .00016717  00000-0  10270-3 0  9046
2 25544  51.6421 355.0016 0007865  57.8267 302.3646 15.51188800 15447
Epoch (UTC): 18 June 2019 10:58:51
Eccentricity: 0.0007865
inclination: 51.6421°
perigee height: 408 km
apogee height: 418 km
right ascension of ascending node: 355.0016°
argument of perigee: 57.8267°
revolutions per day: 15.51188800
mean anomaly at epoch: 302.3646°
orbit number at epoch: 1544

The dashed part of the orbit path shows where the satellite is in the earth's shadow,  

DLR